Time,TemperatureF,DewpointF,PressureIn,WindDirection,WindDirectionDegrees,WindSpeedMPH,WindSpeedGustMPH,Humidity,HourlyPrecipIn,Conditions,Clouds,dailyrainin,SolarRadiationWatts/m^2,SoftwareType,DateUTC
2013-08-02 00:03:00,79.3,61.2,30.01,WNW,290,1.0,3.0,54,0.00,,,0.00,0.0,meteohub,2013-08-02 07:03:00,
2013-08-02 00:08:00,79.3,60.8,30.01,WNW,290,0.0,3.0,53,0.00,,,0.00,0.0,meteohub,2013-08-02 07:08:00,
2013-08-02 00:13:00,79.3,60.8,30.01,WNW,290,2.0,2.0,53,0.00,,,0.00,0.0,meteohub,2013-08-02 07:13:00,
2013-08-02 00:18:00,79.5,60.4,30.01,NW,304,3.0,3.0,52,0.00,,,0.00,0.0,meteohub,2013-08-02 07:18:00,
2013-08-02 00:23:00,80.2,59.9,30.01,NW,314,3.0,4.0,50,0.00,,,0.00,0.0,meteohub,2013-08-02 07:23:00,
2013-08-02 00:28:00,80.8,59.9,30.01,WNW,300,2.0,5.0,49,0.00,,,0.00,0.0,meteohub,2013-08-02 07:28:00,
2013-08-02 00:33:00,81.1,59.5,30.00,NW,306,3.0,5.0,48,0.00,,,0.00,0.0,meteohub,2013-08-02 07:33:00,
2013-08-02 00:38:00,81.5,59.4,30.00,West,278,2.0,5.0,47,0.00,,,0.00,0.0,meteohub,2013-08-02 07:38:00,
2013-08-02 00:43:00,81.9,57.7,30.00,WSW,242,2.0,4.0,44,0.00,,,0.00,0.0,meteohub,2013-08-02 07:43:00,
2013-08-02 00:48:00,82.6,57.7,30.00,NW,308,0.0,4.0,43,0.00,,,0.00,0.0,meteohub,2013-08-02 07:48:00,
2013-08-02 00:53:00,83.1,57.6,30.00,NW,305,1.0,4.0,42,0.00,,,0.00,0.0,meteohub,2013-08-02 07:53:00,
2013-08-02 00:58:00,83.7,57.4,30.00,NW,306,1.0,5.0,41,0.00,,,0.00,0.0,meteohub,2013-08-02 07:58:00,
2013-08-02 01:03:00,83.8,57.6,30.00,NW,311,1.0,5.0,41,0.00,,,0.00,0.0,meteohub,2013-08-02 08:03:00,
2013-08-02 01:08:00,83.8,59.5,30.00,WSW,243,2.0,5.0,44,0.00,,,0.00,0.0,meteohub,2013-08-02 08:08:00,
2013-08-02 01:13:00,82.9,60.1,29.99,South,173,0.0,4.0,46,0.00,,,0.00,0.0,meteohub,2013-08-02 08:13:00,
2013-08-02 01:18:00,82.0,59.9,30.00,South,173,1.0,3.0,47,0.00,,,0.00,0.0,meteohub,2013-08-02 08:18:00,
2013-08-02 01:23:00,81.5,59.9,30.00,SE,131,0.0,3.0,48,0.00,,,0.00,0.0,meteohub,2013-08-02 08:23:00,
2013-08-02 01:28:00,81.1,60.1,30.00,SE,131,0.0,2.0,49,0.00,,,0.00,0.0,meteohub,2013-08-02 08:28:00,
2013-08-02 01:33:00,80.6,60.3,29.99,SE,131,0.0,2.0,50,0.00,,,0.00,0.0,meteohub,2013-08-02 08:33:00,
2013-08-02 01:38:00,80.2,59.9,29.99,SE,131,0.0,2.0,50,0.00,,,0.00,0.0,meteohub,2013-08-02 08:38:00,
2013-08-02 01:43:00,80.1,59.7,29.99,SE,131,1.0,1.0,50,0.00,,,0.00,0.0,meteohub,2013-08-02 08:43:00,
2013-08-02 01:48:00,79.9,60.1,29.99,SE,131,0.0,1.0,51,0.00,,,0.00,0.0,meteohub,2013-08-02 08:48:00,
2013-08-02 01:53:00,79.5,59.7,29.99,SE,131,0.0,1.0,51,0.00,,,0.00,0.0,meteohub,2013-08-02 08:53:00,
2013-08-02 01:58:00,79.3,59.7,29.99,SE,131,0.0,1.0,51,0.00,,,0.00,0.0,meteohub,2013-08-02 08:58:00,
2013-08-02 02:03:00,79.2,59.5,29.99,SE,131,0.0,1.0,51,0.00,,,0.00,0.0,meteohub,2013-08-02 09:03:00,
2013-08-02 02:08:00,78.8,59.2,29.99,SE,131,1.0,1.0,51,0.00,,,0.00,0.0,meteohub,2013-08-02 09:08:00,
2013-08-02 02:13:00,78.6,59.5,29.99,SE,131,0.0,2.0,52,0.00,,,0.00,0.0,meteohub,2013-08-02 09:13:00,
2013-08-02 02:18:00,78.4,59.4,29.99,SE,131,0.0,2.0,52,0.00,,,0.00,0.0,meteohub,2013-08-02 09:18:00,
2013-08-02 02:23:00,78.3,59.7,29.99,SE,131,0.0,2.0,53,0.00,,,0.00,0.0,meteohub,2013-08-02 09:23:00,
2013-08-02 02:28:00,78.3,59.7,29.99,SE,131,0.0,0.0,53,0.00,,,0.00,0.0,meteohub,2013-08-02 09:28:00,
2013-08-02 02:33:00,78.3,59.7,29.99,SE,131,0.0,1.0,53,0.00,,,0.00,0.0,meteohub,2013-08-02 09:33:00,
2013-08-02 02:38:00,78.3,59.7,29.99,SE,131,0.0,2.0,53,0.00,,,0.00,0.0,meteohub,2013-08-02 09:38:00,
2013-08-02 02:43:00,78.3,59.7,29.99,SE,131,0.0,2.0,53,0.00,,,0.00,0.0,meteohub,2013-08-02 09:43:00,
2013-08-02 02:48:00,78.3,59.7,29.99,SE,131,0.0,2.0,53,0.00,,,0.00,0.0,meteohub,2013-08-02 09:48:00,
2013-08-02 02:54:00,78.1,59.5,29.99,SE,131,0.0,1.0,53,0.00,,,0.00,0.0,meteohub,2013-08-02 09:54:00,
2013-08-02 02:59:00,78.1,59.5,29.99,SE,131,0.0,1.0,53,0.00,,,0.00,0.0,meteohub,2013-08-02 09:59:00,
2013-08-02 03:04:00,77.9,59.4,29.98,SE,131,1.0,1.0,53,0.00,,,0.00,0.0,meteohub,2013-08-02 10:04:00,
2013-08-02 03:09:00,77.7,59.7,29.98,SE,131,1.0,1.0,54,0.00,,,0.00,0.0,meteohub,2013-08-02 10:09:00,
2013-08-02 03:14:00,77.7,59.7,29.98,ESE,119,2.0,2.0,54,0.00,,,0.00,0.0,meteohub,2013-08-02 10:14:00,
2013-08-02 03:19:00,77.9,59.9,29.98,East,95,2.0,2.0,54,0.00,,,0.00,0.0,meteohub,2013-08-02 10:19:00,
2013-08-02 03:24:00,78.1,59.5,29.99,East,95,0.0,3.0,53,0.00,,,0.00,0.0,meteohub,2013-08-02 10:24:00,
2013-08-02 03:29:00,78.1,60.6,29.98,SSW,201,1.0,3.0,55,0.00,,,0.00,0.0,meteohub,2013-08-02 10:29:00,
2013-08-02 03:34:00,78.1,60.1,29.98,South,173,1.0,5.0,54,0.00,,,0.00,0.0,meteohub,2013-08-02 10:34:00,
2013-08-02 03:39:00,78.1,60.1,29.98,South,173,0.0,5.0,54,0.00,,,0.00,0.0,meteohub,2013-08-02 10:39:00,
2013-08-02 03:44:00,78.1,60.1,29.98,South,173,0.0,5.0,54,0.00,,,0.00,0.0,meteohub,2013-08-02 10:44:00,
2013-08-02 03:49:00,77.9,59.9,29.98,South,188,0.0,2.0,54,0.00,,,0.00,0.0,meteohub,2013-08-02 10:49:00,
2013-08-02 03:54:00,77.9,59.9,29.98,South,188,0.0,2.0,54,0.00,,,0.00,0.0,meteohub,2013-08-02 10:54:00,
2013-08-02 03:59:00,77.7,59.7,29.98,South,188,0.0,2.0,54,0.00,,,0.00,0.0,meteohub,2013-08-02 10:59:00,
2013-08-02 04:04:00,77.7,59.7,29.98,South,188,0.0,2.0,54,0.00,,,0.00,0.0,meteohub,2013-08-02 11:04:00,
2013-08-02 04:09:00,77.7,59.7,29.98,South,188,0.0,1.0,54,0.00,,,0.00,0.0,meteohub,2013-08-02 11:09:00,
2013-08-02 04:14:00,77.7,59.7,29.98,South,188,1.0,1.0,54,0.00,,,0.00,0.0,meteohub,2013-08-02 11:14:00,
2013-08-02 04:19:00,77.7,59.7,29.98,South,188,0.0,1.0,54,0.00,,,0.00,0.0,meteohub,2013-08-02 11:19:00,
2013-08-02 04:24:00,77.5,59.5,29.98,South,188,0.0,1.0,54,0.00,,,0.00,0.0,meteohub,2013-08-02 11:24:00,
2013-08-02 04:29:00,77.5,59.5,29.98,South,188,0.0,1.0,54,0.00,,,0.00,0.0,meteohub,2013-08-02 11:29:00,
2013-08-02 04:34:00,77.4,59.4,29.98,South,188,0.0,1.0,54,0.00,,,0.00,0.0,meteohub,2013-08-02 11:34:00,
2013-08-02 04:39:00,77.2,59.2,29.98,South,188,0.0,1.0,54,0.00,,,0.00,0.0,meteohub,2013-08-02 11:39:00,
2013-08-02 04:44:00,76.8,59.4,29.98,South,188,0.0,1.0,55,0.00,,,0.00,0.0,meteohub,2013-08-02 11:44:00,
2013-08-02 04:49:00,76.6,59.2,29.98,South,188,0.0,1.0,55,0.00,,,0.00,0.0,meteohub,2013-08-02 11:49:00,
2013-08-02 04:54:00,76.5,59.5,29.99,South,188,0.0,1.0,56,0.00,,,0.00,0.0,meteohub,2013-08-02 11:54:00,
2013-08-02 04:59:00,76.3,59.4,29.99,South,188,0.0,1.0,56,0.00,,,0.00,0.0,meteohub,2013-08-02 11:59:00,
2013-08-02 05:04:00,76.1,59.7,29.99,South,188,0.0,1.0,57,0.00,,,0.00,0.0,meteohub,2013-08-02 12:04:00,
2013-08-02 05:09:00,75.9,59.5,29.99,South,188,1.0,1.0,57,0.00,,,0.00,0.0,meteohub,2013-08-02 12:09:00,
2013-08-02 05:14:00,75.7,59.4,29.99,South,188,0.0,1.0,57,0.00,,,0.00,0.0,meteohub,2013-08-02 12:14:00,
2013-08-02 05:19:00,75.6,59.7,30.00,South,188,0.0,3.0,58,0.00,,,0.00,0.0,meteohub,2013-08-02 12:19:00,
2013-08-02 05:24:00,75.6,59.7,30.00,South,188,0.0,3.0,58,0.00,,,0.00,0.0,meteohub,2013-08-02 12:24:00,
2013-08-02 05:29:00,75.6,59.7,30.00,South,188,0.0,1.0,58,0.00,,,0.00,0.0,meteohub,2013-08-02 12:29:00,
2013-08-02 05:34:00,75.4,59.5,30.00,South,188,0.0,1.0,58,0.00,,,0.00,0.0,meteohub,2013-08-02 12:34:00,
2013-08-02 05:39:00,75.2,59.9,30.00,South,188,0.0,1.0,59,0.00,,,0.00,0.0,meteohub,2013-08-02 12:39:00,
2013-08-02 05:44:00,75.0,59.7,30.01,South,188,1.0,2.0,59,0.00,,,0.00,5.0,meteohub,2013-08-02 12:44:00,
2013-08-02 05:49:00,75.0,60.3,30.01,South,188,0.0,2.0,60,0.00,,,0.00,7.0,meteohub,2013-08-02 12:49:00,
2013-08-02 05:54:00,75.0,60.3,30.01,South,188,0.0,2.0,60,0.00,,,0.00,12.0,meteohub,2013-08-02 12:54:00,
2013-08-02 05:59:00,75.0,60.3,30.01,South,188,0.0,1.0,60,0.00,,,0.00,18.0,meteohub,2013-08-02 12:59:00,
2013-08-02 06:04:00,75.0,60.3,30.01,South,188,1.0,1.0,60,0.00,,,0.00,26.0,meteohub,2013-08-02 13:04:00,
2013-08-02 06:09:00,75.2,60.4,30.01,South,188,1.0,1.0,60,0.00,,,0.00,33.0,meteohub,2013-08-02 13:09:00,
2013-08-02 06:14:00,75.2,59.9,30.01,South,188,0.0,2.0,59,0.00,,,0.00,42.0,meteohub,2013-08-02 13:14:00,
2013-08-02 06:20:00,75.4,60.1,30.01,South,188,0.0,2.0,59,0.00,,,0.00,51.0,meteohub,2013-08-02 13:20:00,
2013-08-02 06:25:00,75.6,60.3,30.01,South,188,0.0,2.0,59,0.00,,,0.00,70.0,meteohub,2013-08-02 13:25:00,
2013-08-02 06:30:00,75.9,60.6,30.01,South,188,0.0,2.0,59,0.00,,,0.00,88.0,meteohub,2013-08-02 13:30:00,
2013-08-02 06:35:00,76.3,61.0,30.01,South,188,0.0,1.0,59,0.00,,,0.00,105.0,meteohub,2013-08-02 13:35:00,
2013-08-02 06:40:00,76.8,60.4,30.01,South,188,0.0,1.0,57,0.00,,,0.00,121.0,meteohub,2013-08-02 13:40:00,
2013-08-02 06:45:00,77.7,60.8,30.01,South,188,0.0,1.0,56,0.00,,,0.00,165.0,meteohub,2013-08-02 13:45:00,
2013-08-02 06:50:00,78.8,61.3,30.01,South,188,1.0,2.0,55,0.00,,,0.00,223.0,meteohub,2013-08-02 13:50:00,
2013-08-02 06:55:00,79.9,61.2,30.02,South,188,1.0,2.0,53,0.00,,,0.00,234.0,meteohub,2013-08-02 13:55:00,
2013-08-02 07:00:00,80.6,61.3,30.02,South,188,1.0,3.0,52,0.00,,,0.00,246.0,meteohub,2013-08-02 14:00:00,
2013-08-02 07:05:00,81.3,61.5,30.02,South,188,2.0,3.0,51,0.00,,,0.00,260.0,meteohub,2013-08-02 14:05:00,
2013-08-02 07:10:00,81.9,61.3,30.02,South,188,2.0,3.0,50,0.00,,,0.00,281.0,meteohub,2013-08-02 14:10:00,
2013-08-02 07:15:00,82.2,61.7,30.02,South,188,2.0,3.0,50,0.00,,,0.00,204.0,meteohub,2013-08-02 14:15:00,
2013-08-02 07:20:00,82.6,61.5,30.02,South,189,1.0,3.0,49,0.00,,,0.00,192.0,meteohub,2013-08-02 14:20:00,
2013-08-02 07:25:00,82.9,61.2,30.02,South,189,1.0,3.0,48,0.00,,,0.00,229.0,meteohub,2013-08-02 14:25:00,
2013-08-02 07:30:00,83.5,61.2,30.02,SW,217,1.0,3.0,47,0.00,,,0.00,420.0,meteohub,2013-08-02 14:30:00,
2013-08-02 07:35:00,84.0,61.7,30.03,WSW,246,2.0,4.0,47,0.00,,,0.00,473.0,meteohub,2013-08-02 14:35:00,
2013-08-02 07:40:00,84.7,61.7,30.03,WSW,248,2.0,4.0,46,0.00,,,0.00,441.0,meteohub,2013-08-02 14:40:00,
2013-08-02 07:45:00,85.5,61.7,30.03,WSW,252,2.0,4.0,45,0.00,,,0.00,401.0,meteohub,2013-08-02 14:45:00,
2013-08-02 07:50:00,86.2,62.4,30.03,SW,227,1.0,4.0,45,0.00,,,0.00,417.0,meteohub,2013-08-02 14:50:00,
2013-08-02 07:55:00,86.5,62.1,30.03,SW,219,1.0,4.0,44,0.00,,,0.00,492.0,meteohub,2013-08-02 14:55:00,
2013-08-02 08:00:00,87.1,61.9,30.03,WSW,250,3.0,4.0,43,0.00,,,0.00,413.0,meteohub,2013-08-02 15:00:00,
2013-08-02 08:01:00,87.3,62.1,30.03,WSW,252,2.0,4.0,43,0.00,,,0.00,413.0,meteohub,2013-08-02 15:01:00,
2013-08-02 08:06:00,87.8,62.6,30.04,West,268,3.0,5.0,43,0.00,,,0.00,329.0,meteohub,2013-08-02 15:06:00,
2013-08-02 08:10:00,88.0,62.1,30.04,SW,227,3.0,6.0,42,0.00,,,0.00,343.0,meteohub,2013-08-02 15:10:00,
2013-08-02 08:16:00,87.6,61.7,30.04,WSW,251,2.0,6.0,42,0.00,,,0.00,316.0,meteohub,2013-08-02 15:16:00,
2013-08-02 08:21:00,87.6,61.7,30.04,NW,308,1.0,6.0,42,0.00,,,0.00,265.0,meteohub,2013-08-02 15:21:00,
2013-08-02 08:26:00,87.6,61.7,30.04,West,260,2.0,5.0,42,0.00,,,0.00,327.0,meteohub,2013-08-02 15:26:00,
2013-08-02 08:31:00,87.6,61.7,30.04,West,265,1.0,4.0,42,0.00,,,0.00,318.0,meteohub,2013-08-02 15:31:00,
2013-08-02 08:36:00,87.6,61.0,30.05,West,272,4.0,4.0,41,0.00,,,0.00,279.0,meteohub,2013-08-02 15:36:00,
2013-08-02 08:41:00,87.4,60.8,30.05,SW,224,4.0,5.0,41,0.00,,,0.00,272.0,meteohub,2013-08-02 15:41:00,
2013-08-02 08:46:00,87.1,60.4,30.05,West,261,2.0,5.0,41,0.00,,,0.00,283.0,meteohub,2013-08-02 15:46:00,
2013-08-02 08:51:00,86.9,60.4,30.05,WSW,244,1.0,5.0,41,0.00,,,0.00,262.0,meteohub,2013-08-02 15:51:00,
2013-08-02 08:56:00,86.9,60.4,30.05,West,261,2.0,5.0,41,0.00,,,0.00,339.0,meteohub,2013-08-02 15:56:00,
2013-08-02 09:01:00,87.3,60.6,30.05,West,261,4.0,5.0,41,0.00,,,0.00,443.0,meteohub,2013-08-02 16:01:00,
2013-08-02 09:06:00,87.6,61.0,30.05,SW,227,2.0,5.0,41,0.00,,,0.00,578.0,meteohub,2013-08-02 16:06:00,
2013-08-02 09:11:00,88.5,61.9,30.05,SW,234,3.0,5.0,41,0.00,,,0.00,619.0,meteohub,2013-08-02 16:11:00,
2013-08-02 09:16:00,89.1,62.2,30.05,North,9,1.0,6.0,41,0.00,,,0.00,561.0,meteohub,2013-08-02 16:16:00,
2013-08-02 09:22:00,89.4,61.9,30.05,West,270,3.0,6.0,40,0.00,,,0.00,404.0,meteohub,2013-08-02 16:22:00,
2013-08-02 09:27:00,89.2,62.4,30.05,West,279,2.0,6.0,41,0.00,,,0.00,327.0,meteohub,2013-08-02 16:27:00,
2013-08-02 09:32:00,88.7,62.1,30.05,WNW,286,2.0,6.0,41,0.00,,,0.00,327.0,meteohub,2013-08-02 16:32:00,
2013-08-02 09:37:00,88.3,62.4,30.05,East,80,1.0,6.0,42,0.00,,,0.00,359.0,meteohub,2013-08-02 16:37:00,
2013-08-02 09:42:00,88.7,62.1,30.05,WSW,257,3.0,6.0,41,0.00,,,0.00,418.0,meteohub,2013-08-02 16:42:00,
2013-08-02 09:46:00,88.9,62.1,30.05,WNW,288,2.0,6.0,41,0.00,,,0.00,462.0,meteohub,2013-08-02 16:46:00,
2013-08-02 09:52:00,89.1,62.2,30.05,West,274,1.0,6.0,41,0.00,,,0.00,483.0,meteohub,2013-08-02 16:52:00,
2013-08-02 09:57:00,89.4,62.6,30.05,South,183,2.0,6.0,41,0.00,,,0.00,536.0,meteohub,2013-08-02 16:57:00,
2013-08-02 10:02:00,90.1,62.6,30.05,East,92,1.0,4.0,40,0.00,,,0.00,679.0,meteohub,2013-08-02 17:02:00,
2013-08-02 10:07:00,90.7,62.2,30.05,NW,326,2.0,3.0,39,0.00,,,0.00,587.0,meteohub,2013-08-02 17:07:00,
2013-08-02 10:12:00,90.3,62.1,30.05,WNW,302,1.0,4.0,39,0.00,,,0.00,531.0,meteohub,2013-08-02 17:12:00,
2013-08-02 10:17:00,90.9,62.4,30.05,NW,315,0.0,4.0,39,0.00,,,0.00,633.0,meteohub,2013-08-02 17:17:00,
2013-08-02 10:22:00,91.6,62.4,30.05,SW,234,2.0,4.0,38,0.00,,,0.00,664.0,meteohub,2013-08-02 17:22:00,
2013-08-02 10:27:00,91.6,62.4,30.05,SW,217,2.0,5.0,38,0.00,,,0.00,561.0,meteohub,2013-08-02 17:27:00,
2013-08-02 10:33:00,91.6,62.4,30.05,NNE,26,2.0,5.0,38,0.00,,,0.00,563.0,meteohub,2013-08-02 17:33:00,
2013-08-02 10:38:00,91.8,61.7,30.04,SW,221,7.0,7.0,37,0.00,,,0.00,496.0,meteohub,2013-08-02 17:38:00,
2013-08-02 10:43:00,91.9,61.9,30.04,SW,219,1.0,7.0,37,0.00,,,0.00,947.0,meteohub,2013-08-02 17:43:00,
2013-08-02 10:48:00,92.8,61.9,30.04,WSW,238,0.0,7.0,36,0.00,,,0.00,635.0,meteohub,2013-08-02 17:48:00,
2013-08-02 10:53:00,93.6,61.7,30.04,NW,304,5.0,7.0,35,0.00,,,0.00,918.0,meteohub,2013-08-02 17:53:00,
2013-08-02 10:58:00,94.1,62.2,30.04,WNW,283,2.0,6.0,35,0.00,,,0.00,1013.0,meteohub,2013-08-02 17:58:00,
2013-08-02 11:03:00,94.6,61.9,30.03,WSW,257,2.0,6.0,34,0.00,,,0.00,1060.0,meteohub,2013-08-02 18:03:00,
2013-08-02 11:08:00,94.8,62.1,30.03,SSW,193,3.0,6.0,34,0.00,,,0.00,318.0,meteohub,2013-08-02 18:08:00,
2013-08-02 11:13:00,94.8,62.1,30.03,WNW,290,2.0,5.0,34,0.00,,,0.00,1123.0,meteohub,2013-08-02 18:13:00,
2013-08-02 11:18:00,95.0,62.2,30.02,SSW,207,1.0,5.0,34,0.00,,,0.00,1121.0,meteohub,2013-08-02 18:18:00,
2013-08-02 11:23:00,94.6,61.9,30.02,SW,219,1.0,6.0,34,0.00,,,0.00,248.0,meteohub,2013-08-02 18:23:00,
2013-08-02 11:28:00,93.9,61.3,30.02,West,270,3.0,6.0,34,0.00,,,0.00,218.0,meteohub,2013-08-02 18:28:00,
2013-08-02 11:33:00,93.4,60.8,30.02,SW,219,3.0,7.0,34,0.00,,,0.00,176.0,meteohub,2013-08-02 18:33:00,
2013-08-02 11:38:00,92.7,61.0,30.02,West,262,6.0,8.0,35,0.00,,,0.00,137.0,meteohub,2013-08-02 18:38:00,
2013-08-02 11:43:00,92.3,60.6,30.02,WSW,252,5.0,8.0,35,0.00,,,0.00,109.0,meteohub,2013-08-02 18:43:00,
2013-08-02 11:48:00,91.6,60.8,30.02,SW,227,3.0,8.0,36,0.00,,,0.00,104.0,meteohub,2013-08-02 18:48:00,
2013-08-02 11:53:00,91.2,61.3,30.02,West,269,3.0,7.0,37,0.00,,,0.00,107.0,meteohub,2013-08-02 18:53:00,
2013-08-02 11:58:00,91.0,61.2,30.02,WSW,258,5.0,7.0,37,0.00,,,0.00,111.0,meteohub,2013-08-02 18:58:00,
2013-08-02 12:03:00,90.9,61.7,30.02,WSW,254,5.0,7.0,38,0.00,,,0.00,121.0,meteohub,2013-08-02 19:03:00,
2013-08-02 12:08:00,90.9,61.7,30.02,WNW,284,2.0,7.0,38,0.00,,,0.00,137.0,meteohub,2013-08-02 19:08:00,
2013-08-02 12:13:00,90.9,61.7,30.02,West,263,2.0,6.0,38,0.00,,,0.00,155.0,meteohub,2013-08-02 19:13:00,
2013-08-02 12:18:00,90.7,61.5,30.02,West,262,2.0,7.0,38,0.00,,,0.00,165.0,meteohub,2013-08-02 19:18:00,
2013-08-02 12:23:00,90.7,61.5,30.02,West,266,2.0,7.0,38,0.00,,,0.00,172.0,meteohub,2013-08-02 19:23:00,
2013-08-02 12:28:00,90.7,61.5,30.02,WSW,244,4.0,6.0,38,0.00,,,0.00,172.0,meteohub,2013-08-02 19:28:00,
2013-08-02 12:33:00,90.7,61.5,30.01,West,262,1.0,6.0,38,0.00,,,0.00,158.0,meteohub,2013-08-02 19:33:00,
2013-08-02 12:38:00,90.7,61.5,30.01,WSW,241,3.0,6.0,38,0.00,,,0.00,141.0,meteohub,2013-08-02 19:38:00,
2013-08-02 12:43:00,90.5,61.3,30.01,SSW,210,3.0,6.0,38,0.00,,,0.00,125.0,meteohub,2013-08-02 19:43:00,
2013-08-02 12:48:00,90.3,61.3,30.01,South,191,3.0,5.0,38,0.00,,,0.00,118.0,meteohub,2013-08-02 19:48:00,
2013-08-02 12:53:00,90.1,61.2,30.01,WSW,241,2.0,6.0,38,0.00,,,0.00,120.0,meteohub,2013-08-02 19:53:00,
2013-08-02 12:58:00,90.1,61.2,30.00,SW,227,3.0,6.0,38,0.00,,,0.00,127.0,meteohub,2013-08-02 19:58:00,
2013-08-02 13:03:00,90.1,61.2,30.00,SSW,208,3.0,6.0,38,0.00,,,0.00,139.0,meteohub,2013-08-02 20:03:00,
2013-08-02 13:08:00,90.1,61.2,30.00,SSW,208,2.0,5.0,38,0.00,,,0.00,146.0,meteohub,2013-08-02 20:08:00,
2013-08-02 13:13:00,90.1,61.2,30.00,SW,219,3.0,4.0,38,0.00,,,0.00,155.0,meteohub,2013-08-02 20:13:00,
2013-08-02 13:18:00,90.3,61.3,30.00,SSW,194,1.0,4.0,38,0.00,,,0.00,167.0,meteohub,2013-08-02 20:18:00,
2013-08-02 13:23:00,90.3,61.3,30.00,SSW,204,3.0,4.0,38,0.00,,,0.00,176.0,meteohub,2013-08-02 20:23:00,
2013-08-02 13:28:00,90.3,61.3,30.00,WSW,249,1.0,4.0,38,0.00,,,0.00,176.0,meteohub,2013-08-02 20:28:00,
2013-08-02 13:33:00,90.3,62.1,30.00,SW,230,5.0,5.0,39,0.00,,,0.00,200.0,meteohub,2013-08-02 20:33:00,
2013-08-02 13:39:00,90.1,62.6,30.00,SSE,150,1.0,4.0,40,0.00,,,0.00,239.0,meteohub,2013-08-02 20:39:00,
2013-08-02 13:44:00,90.3,62.8,30.00,SSW,194,2.0,6.0,40,0.00,,,0.00,239.0,meteohub,2013-08-02 20:44:00,
2013-08-02 13:49:00,90.3,62.8,30.00,South,181,2.0,6.0,40,0.00,,,0.00,218.0,meteohub,2013-08-02 20:49:00,
2013-08-02 13:54:00,90.3,62.8,30.01,SSW,199,1.0,5.0,40,0.00,,,0.00,193.0,meteohub,2013-08-02 20:54:00,
2013-08-02 13:59:00,90.1,62.6,30.01,South,177,1.0,5.0,40,0.00,,,0.00,171.0,meteohub,2013-08-02 20:59:00,
2013-08-02 14:04:00,90.1,62.6,30.01,SE,143,1.0,6.0,40,0.00,,,0.00,163.0,meteohub,2013-08-02 21:04:00,
2013-08-02 14:09:00,90.0,62.4,30.01,SE,136,0.0,6.0,40,0.00,,,0.00,162.0,meteohub,2013-08-02 21:09:00,
2013-08-02 14:14:00,89.8,63.0,30.01,SSW,198,2.0,6.0,41,0.00,,,0.00,149.0,meteohub,2013-08-02 21:14:00,
2013-08-02 14:19:00,89.4,62.6,30.01,SSW,206,4.0,5.0,41,0.00,,,0.00,135.0,meteohub,2013-08-02 21:19:00,
2013-08-02 14:24:00,89.1,63.0,30.01,SSW,196,6.0,6.0,42,0.00,,,0.00,113.0,meteohub,2013-08-02 21:24:00,
2013-08-02 14:29:00,88.3,62.4,30.02,SSW,198,7.0,9.0,42,0.00,,,0.00,83.0,meteohub,2013-08-02 21:29:00,
2013-08-02 14:34:00,87.8,61.2,30.02,SSW,209,4.0,9.0,41,0.00,,,0.00,74.0,meteohub,2013-08-02 21:34:00,
2013-08-02 14:39:00,87.4,61.5,30.02,SW,220,2.0,9.0,42,0.00,,,0.00,88.0,meteohub,2013-08-02 21:39:00,
2013-08-02 14:44:00,87.4,62.2,30.02,SW,229,3.0,8.0,43,0.00,,,0.00,105.0,meteohub,2013-08-02 21:44:00,
2013-08-02 14:49:00,87.1,61.9,30.02,SSW,196,4.0,8.0,43,0.00,,,0.00,113.0,meteohub,2013-08-02 21:49:00,
2013-08-02 14:54:00,86.5,62.6,30.02,SSW,198,5.0,9.0,45,0.00,,,0.00,111.0,meteohub,2013-08-02 21:54:00,
2013-08-02 14:59:00,86.2,63.0,30.02,South,189,1.0,9.0,46,0.00,,,0.00,100.0,meteohub,2013-08-02 21:59:00,
2013-08-02 15:04:00,85.8,63.3,30.02,SW,219,1.0,9.0,47,0.00,,,0.00,91.0,meteohub,2013-08-02 22:04:00,
2013-08-02 15:09:00,85.6,63.7,30.02,SW,219,1.0,7.0,48,0.00,,,0.00,90.0,meteohub,2013-08-02 22:09:00,
2013-08-02 15:14:00,85.5,63.5,30.02,SW,228,2.0,5.0,48,0.00,,,0.00,83.0,meteohub,2013-08-02 22:14:00,
2013-08-02 15:19:00,85.1,63.1,30.02,WSW,240,2.0,5.0,48,0.00,,,0.00,77.0,meteohub,2013-08-02 22:19:00,
2013-08-02 15:24:00,84.9,63.0,30.02,WSW,238,1.0,5.0,48,0.00,,,0.00,77.0,meteohub,2013-08-02 22:24:00,
2013-08-02 15:29:00,84.7,63.5,30.02,SSW,205,2.0,5.0,49,0.00,,,0.00,79.0,meteohub,2013-08-02 22:29:00,
2013-08-02 15:34:00,84.6,63.9,30.02,SW,235,2.0,5.0,50,0.00,,,0.00,83.0,meteohub,2013-08-02 22:34:00,
2013-08-02 15:39:00,84.4,64.8,30.02,SW,221,0.0,5.0,52,0.00,,,0.00,84.0,meteohub,2013-08-02 22:39:00,
2013-08-02 15:44:00,84.0,64.6,30.02,SW,221,2.0,5.0,52,0.00,,,0.00,90.0,meteohub,2013-08-02 22:44:00,
2013-08-02 15:49:00,83.7,64.8,30.02,SW,221,1.0,3.0,53,0.00,,,0.00,100.0,meteohub,2013-08-02 22:49:00,
2013-08-02 15:54:00,83.5,64.6,30.02,SW,234,2.0,3.0,53,0.00,,,0.00,113.0,meteohub,2013-08-02 22:54:00,
2013-08-02 15:59:00,83.1,64.8,30.02,WSW,249,0.0,3.0,54,0.00,,,0.00,134.0,meteohub,2013-08-02 22:59:00,
2013-08-02 16:04:00,82.9,64.6,30.01,WSW,249,1.0,3.0,54,0.00,,,0.00,151.0,meteohub,2013-08-02 23:04:00,
2013-08-02 16:11:00,82.9,66.2,30.01,WSW,249,1.0,3.0,57,0.00,,,0.00,174.0,meteohub,2013-08-02 23:11:00,
2013-08-02 16:16:00,83.1,64.8,30.01,WSW,249,0.0,3.0,54,0.00,,,0.00,179.0,meteohub,2013-08-02 23:16:00,
2013-08-02 16:21:00,83.3,63.9,30.01,WSW,249,1.0,2.0,52,0.00,,,0.00,183.0,meteohub,2013-08-02 23:21:00,
2013-08-02 16:26:00,83.7,63.7,30.01,South,169,1.0,3.0,51,0.00,,,0.00,176.0,meteohub,2013-08-02 23:26:00,
2013-08-02 16:31:00,83.8,63.9,30.01,SSE,159,1.0,3.0,51,0.00,,,0.00,178.0,meteohub,2013-08-02 23:31:00,
2013-08-02 16:36:00,83.8,64.4,30.01,SSE,163,0.0,3.0,52,0.00,,,0.00,185.0,meteohub,2013-08-02 23:36:00,
2013-08-02 16:41:00,84.0,62.8,30.01,SSE,154,2.0,3.0,49,0.00,,,0.00,190.0,meteohub,2013-08-02 23:41:00,
2013-08-02 16:46:00,84.4,62.6,30.01,SSE,154,1.0,2.0,48,0.00,,,0.00,193.0,meteohub,2013-08-02 23:46:00,
2013-08-02 16:51:00,84.6,62.8,30.00,SSE,154,0.0,2.0,48,0.00,,,0.00,195.0,meteohub,2013-08-02 23:51:00,
2013-08-02 16:56:00,84.9,63.0,30.00,SSE,154,1.0,2.0,48,0.00,,,0.00,213.0,meteohub,2013-08-02 23:56:00,
2013-08-02 17:01:00,85.3,62.8,30.00,SSE,154,1.0,2.0,47,0.00,,,0.00,265.0,meteohub,2013-08-03 00:01:00,
2013-08-02 17:06:00,85.6,63.1,30.00,SSE,153,2.0,2.0,47,0.00,,,0.00,431.0,meteohub,2013-08-03 00:06:00,
2013-08-02 17:11:00,86.0,63.5,30.00,SE,133,1.0,3.0,47,0.00,,,0.00,279.0,meteohub,2013-08-03 00:11:00,
2013-08-02 17:16:00,86.4,63.1,29.99,SSW,210,2.0,3.0,46,0.00,,,0.00,278.0,meteohub,2013-08-03 00:16:00,
2013-08-02 17:22:00,86.7,63.5,29.99,SSW,210,1.0,3.0,46,0.00,,,0.00,538.0,meteohub,2013-08-03 00:22:00,
2013-08-02 17:26:00,87.4,63.5,29.99,West,262,2.0,3.0,45,0.00,,,0.00,276.0,meteohub,2013-08-03 00:26:00,
2013-08-02 17:32:00,87.4,63.5,29.99,West,262,0.0,3.0,45,0.00,,,0.00,230.0,meteohub,2013-08-03 00:32:00,
2013-08-02 17:37:00,87.6,63.7,30.00,West,262,0.0,3.0,45,0.00,,,0.00,315.0,meteohub,2013-08-03 00:37:00,
2013-08-02 17:42:00,88.3,63.7,30.00,SW,227,2.0,3.0,44,0.00,,,0.00,318.0,meteohub,2013-08-03 00:42:00,
2013-08-02 17:47:00,88.5,63.1,30.00,SSW,200,4.0,4.0,43,0.00,,,0.00,260.0,meteohub,2013-08-03 00:47:00,
2013-08-02 17:52:00,88.3,63.0,30.00,SW,214,1.0,5.0,43,0.00,,,0.00,265.0,meteohub,2013-08-03 00:52:00,
2013-08-02 17:57:00,88.5,63.9,30.00,WSW,254,4.0,5.0,44,0.00,,,0.00,369.0,meteohub,2013-08-03 00:57:00,
2013-08-02 18:02:00,88.3,63.7,30.00,West,261,2.0,5.0,44,0.00,,,0.00,179.0,meteohub,2013-08-03 01:02:00,
2013-08-02 18:07:00,88.0,63.3,30.00,SW,234,2.0,4.0,44,0.00,,,0.00,142.0,meteohub,2013-08-03 01:07:00,
2013-08-02 18:12:00,87.4,62.8,30.00,West,261,2.0,5.0,44,0.00,,,0.00,130.0,meteohub,2013-08-03 01:12:00,
2013-08-02 18:17:00,87.3,63.3,30.00,WSW,248,2.0,5.0,45,0.00,,,0.00,105.0,meteohub,2013-08-03 01:17:00,
2013-08-02 18:22:00,86.9,63.0,30.01,West,264,3.0,5.0,45,0.00,,,0.00,70.0,meteohub,2013-08-03 01:22:00,
2013-08-02 18:27:00,86.5,62.6,30.01,WSW,257,3.0,5.0,45,0.00,,,0.00,46.0,meteohub,2013-08-03 01:27:00,
2013-08-02 18:32:00,86.4,62.4,30.01,WSW,254,1.0,5.0,45,0.00,,,0.00,28.0,meteohub,2013-08-03 01:32:00,
2013-08-02 18:37:00,86.2,63.0,30.01,WSW,257,2.0,5.0,46,0.00,,,0.00,18.0,meteohub,2013-08-03 01:37:00,
2013-08-02 18:42:00,85.8,62.6,30.00,WSW,257,1.0,4.0,46,0.00,,,0.00,16.0,meteohub,2013-08-03 01:42:00,
2013-08-02 18:47:00,85.6,63.1,30.01,WSW,257,1.0,3.0,47,0.00,,,0.00,14.0,meteohub,2013-08-03 01:47:00,
2013-08-02 18:52:00,85.6,62.4,30.01,WSW,257,1.0,3.0,46,0.00,,,0.00,12.0,meteohub,2013-08-03 01:52:00,
2013-08-02 18:57:00,85.5,62.2,30.01,WSW,257,1.0,3.0,46,0.00,,,0.00,11.0,meteohub,2013-08-03 01:57:00,
2013-08-02 19:02:00,85.5,63.0,30.01,WSW,257,0.0,2.0,47,0.00,,,0.00,7.0,meteohub,2013-08-03 02:02:00,
2013-08-02 19:07:00,85.3,62.8,30.01,WSW,257,0.0,2.0,47,0.00,,,0.00,5.0,meteohub,2013-08-03 02:07:00,
2013-08-02 19:12:00,85.1,62.6,30.01,WSW,257,1.0,2.0,47,0.00,,,0.00,5.0,meteohub,2013-08-03 02:12:00,
2013-08-02 19:17:00,84.9,62.4,30.01,WSW,257,0.0,2.0,47,0.00,,,0.00,0.0,meteohub,2013-08-03 02:17:00,
2013-08-02 19:22:00,84.9,62.4,30.01,WSW,257,0.0,2.0,47,0.00,,,0.00,0.0,meteohub,2013-08-03 02:22:00,
2013-08-02 19:27:00,84.7,63.0,30.01,WSW,257,0.0,2.0,48,0.00,,,0.00,0.0,meteohub,2013-08-03 02:27:00,
2013-08-02 19:32:00,84.7,63.0,30.01,WSW,257,0.0,1.0,48,0.00,,,0.00,0.0,meteohub,2013-08-03 02:32:00,
2013-08-02 19:33:00,84.7,63.0,30.01,WSW,257,0.0,1.0,48,0.00,,,0.00,0.0,meteohub,2013-08-03 02:33:00,
2013-08-02 19:37:00,84.6,62.8,30.01,WSW,257,0.0,1.0,48,0.00,,,0.00,0.0,meteohub,2013-08-03 02:37:00,
2013-08-02 19:42:00,84.4,62.6,30.01,WSW,257,0.0,1.0,48,0.00,,,0.00,0.0,meteohub,2013-08-03 02:42:00,
2013-08-02 19:48:00,84.2,62.4,30.01,WSW,257,0.0,0.0,48,0.00,,,0.00,0.0,meteohub,2013-08-03 02:48:00,
2013-08-02 19:53:00,83.8,62.6,30.01,WSW,257,0.0,0.0,49,0.00,,,0.00,0.0,meteohub,2013-08-03 02:53:00,
2013-08-02 19:58:00,83.8,62.6,30.02,WSW,257,0.0,1.0,49,0.00,,,0.00,0.0,meteohub,2013-08-03 02:58:00,
2013-08-02 20:03:00,83.7,63.0,30.02,WSW,257,0.0,1.0,50,0.00,,,0.00,0.0,meteohub,2013-08-03 03:03:00,
2013-08-02 20:08:00,83.5,63.0,30.02,WSW,257,0.0,0.0,50,0.00,,,0.00,0.0,meteohub,2013-08-03 03:08:00,
2013-08-02 20:13:00,83.1,62.6,30.02,WSW,257,0.0,0.0,50,0.00,,,0.00,0.0,meteohub,2013-08-03 03:13:00,
2013-08-02 20:18:00,82.9,63.0,30.02,WSW,257,0.0,0.0,51,0.00,,,0.00,0.0,meteohub,2013-08-03 03:18:00,
2013-08-02 20:23:00,82.8,62.8,30.02,WSW,257,1.0,1.0,51,0.00,,,0.00,0.0,meteohub,2013-08-03 03:23:00,
2013-08-02 20:28:00,82.8,62.8,30.02,WSW,257,0.0,1.0,51,0.00,,,0.00,0.0,meteohub,2013-08-03 03:28:00,
2013-08-02 20:33:00,82.6,62.6,30.02,WSW,257,0.0,1.0,51,0.00,,,0.00,0.0,meteohub,2013-08-03 03:33:00,
2013-08-02 20:38:00,82.4,62.4,30.02,WSW,257,0.0,1.0,51,0.00,,,0.00,0.0,meteohub,2013-08-03 03:38:00,
2013-08-02 20:43:00,82.2,62.8,30.02,WSW,257,0.0,1.0,52,0.00,,,0.00,0.0,meteohub,2013-08-03 03:43:00,
2013-08-02 20:48:00,82.2,62.8,30.02,WSW,257,0.0,0.0,52,0.00,,,0.00,0.0,meteohub,2013-08-03 03:48:00,
2013-08-02 20:53:00,82.0,62.6,30.02,WSW,257,1.0,0.0,52,0.00,,,0.00,0.0,meteohub,2013-08-03 03:53:00,
2013-08-02 20:58:00,82.0,62.6,30.03,WSW,257,1.0,1.0,52,0.00,,,0.00,0.0,meteohub,2013-08-03 03:58:00,
2013-08-02 21:01:00,81.9,62.4,30.03,WSW,257,1.0,1.0,52,0.00,,,0.00,0.0,meteohub,2013-08-03 04:01:00,
2013-08-02 21:02:00,81.9,62.4,30.03,WSW,257,1.0,1.0,52,0.00,,,0.00,0.0,meteohub,2013-08-03 04:02:00,
2013-08-02 21:07:00,81.9,63.0,30.03,WSW,257,0.0,1.0,53,0.00,,,0.00,0.0,meteohub,2013-08-03 04:07:00,
2013-08-02 21:12:00,81.9,63.0,30.03,WSW,257,0.0,1.0,53,0.00,,,0.00,0.0,meteohub,2013-08-03 04:12:00,
2013-08-02 21:17:00,81.9,63.0,30.04,WSW,257,0.0,1.0,53,0.00,,,0.00,0.0,meteohub,2013-08-03 04:17:00,
2013-08-02 21:22:00,81.9,63.0,30.04,WSW,257,1.0,0.0,53,0.00,,,0.00,0.0,meteohub,2013-08-03 04:22:00,
2013-08-02 21:27:00,81.9,63.0,30.04,WSW,257,0.0,1.0,53,0.00,,,0.00,0.0,meteohub,2013-08-03 04:27:00,
2013-08-02 21:32:00,81.9,63.0,30.04,WSW,257,0.0,1.0,53,0.00,,,0.00,0.0,meteohub,2013-08-03 04:32:00,
2013-08-02 21:37:00,81.9,63.0,30.04,WSW,257,1.0,1.0,53,0.00,,,0.00,0.0,meteohub,2013-08-03 04:37:00,
2013-08-02 21:42:00,81.9,63.0,30.04,WSW,257,0.0,1.0,53,0.00,,,0.00,0.0,meteohub,2013-08-03 04:42:00,
2013-08-02 21:47:00,81.9,63.0,30.04,WSW,257,0.0,1.0,53,0.00,,,0.00,0.0,meteohub,2013-08-03 04:47:00,
2013-08-02 21:52:00,81.7,63.0,30.04,WSW,257,0.0,1.0,53,0.00,,,0.00,0.0,meteohub,2013-08-03 04:52:00,
2013-08-02 21:57:00,81.7,63.5,30.04,WSW,257,0.0,2.0,54,0.00,,,0.00,0.0,meteohub,2013-08-03 04:57:00,
2013-08-02 22:02:00,81.5,63.3,30.04,WSW,257,0.0,2.0,54,0.00,,,0.00,0.0,meteohub,2013-08-03 05:02:00,
2013-08-02 22:07:00,81.3,63.1,30.04,WSW,257,0.0,2.0,54,0.00,,,0.00,0.0,meteohub,2013-08-03 05:07:00,
2013-08-02 22:12:00,81.1,63.0,30.04,WSW,257,0.0,1.0,54,0.00,,,0.00,0.0,meteohub,2013-08-03 05:12:00,
2013-08-02 22:17:00,81.0,63.3,30.04,WSW,257,0.0,1.0,55,0.00,,,0.00,0.0,meteohub,2013-08-03 05:17:00,
2013-08-02 22:22:00,80.8,63.1,30.03,WSW,257,0.0,0.0,55,0.00,,,0.00,0.0,meteohub,2013-08-03 05:22:00,
2013-08-02 22:27:00,80.6,63.5,30.04,WSW,257,0.0,0.0,56,0.00,,,0.00,0.0,meteohub,2013-08-03 05:27:00,
2013-08-02 22:32:00,80.4,63.3,30.04,WSW,257,0.0,0.0,56,0.00,,,0.00,0.0,meteohub,2013-08-03 05:32:00,
2013-08-02 22:37:00,80.2,63.1,30.04,WSW,257,0.0,1.0,56,0.00,,,0.00,0.0,meteohub,2013-08-03 05:37:00,
2013-08-02 22:42:00,80.1,63.0,30.04,WSW,257,0.0,1.0,56,0.00,,,0.00,0.0,meteohub,2013-08-03 05:42:00,
2013-08-02 22:47:00,79.9,63.3,30.04,WSW,257,0.0,1.0,57,0.00,,,0.00,0.0,meteohub,2013-08-03 05:47:00,
2013-08-02 22:52:00,79.9,63.3,30.04,WSW,257,1.0,1.0,57,0.00,,,0.00,0.0,meteohub,2013-08-03 05:52:00,
2013-08-02 22:57:00,79.9,63.3,30.04,WSW,257,1.0,2.0,57,0.00,,,0.00,0.0,meteohub,2013-08-03 05:57:00,
2013-08-02 23:02:00,79.9,63.3,30.04,WSW,257,0.0,2.0,57,0.00,,,0.00,0.0,meteohub,2013-08-03 06:02:00,
2013-08-02 23:07:00,79.9,63.3,30.04,WSW,257,0.0,2.0,57,0.00,,,0.00,0.0,meteohub,2013-08-03 06:07:00,
2013-08-02 23:12:00,79.9,63.3,30.04,WSW,257,1.0,2.0,57,0.00,,,0.00,0.0,meteohub,2013-08-03 06:12:00,
2013-08-02 23:17:00,80.1,63.5,30.04,WSW,257,0.0,2.0,57,0.00,,,0.00,0.0,meteohub,2013-08-03 06:17:00,
2013-08-02 23:22:00,80.1,63.5,30.04,West,263,3.0,3.0,57,0.00,,,0.00,0.0,meteohub,2013-08-03 06:22:00,
2013-08-02 23:27:00,80.1,63.0,30.04,WSW,252,2.0,5.0,56,0.00,,,0.00,0.0,meteohub,2013-08-03 06:27:00,
2013-08-02 23:32:00,80.2,62.6,30.04,West,270,4.0,5.0,55,0.00,,,0.00,0.0,meteohub,2013-08-03 06:32:00,
2013-08-02 23:37:00,80.2,62.6,30.04,WSW,239,2.0,6.0,55,0.00,,,0.00,0.0,meteohub,2013-08-03 06:37:00,
2013-08-02 23:42:00,80.1,61.9,30.04,West,262,1.0,8.0,54,0.00,,,0.00,0.0,meteohub,2013-08-03 06:42:00,
2013-08-02 23:47:00,79.7,62.1,30.04,West,263,3.0,8.0,55,0.00,,,0.00,0.0,meteohub,2013-08-03 06:47:00,
2013-08-02 23:52:00,79.5,62.4,30.04,WNW,282,0.0,8.0,56,0.00,,,0.00,0.0,meteohub,2013-08-03 06:52:00,
2013-08-02 23:57:00,79.3,62.2,30.04,NW,311,1.0,5.0,56,0.00,,,0.00,0.0,meteohub,2013-08-03 06:57:00,